Date,TemperatureHighF,TemperatureAvgF,TemperatureLowF,DewpointHighF,DewpointAvgF,DewpointLowF,HumidityHigh,HumidityAvg,HumidityLow,PressureMaxIn,PressureMinIn,WindSpeedMaxMPH,WindSpeedAvgMPH,GustSpeedMaxMPH,PrecipitationSumIn
2013-3-1,32.6,30.3,27.0,26.9,23.8,21.3,83,77,68,30.45,30.34,10,4,18,0.00
2013-3-2,38.4,29.2,21.5,24.7,21.5,18.5,89,74,51,30.53,30.38,7,2,14,0.00
2013-3-3,57.1,42.9,27.3,35.3,28.4,21.6,80,58,39,30.38,29.88,12,4,19,0.00
2013-3-4,65.3,54.9,43.2,47.6,40.8,32.5,77,59,47,29.99,29.70,13,6,24,0.00
2013-3-5,44.7,38.1,31.3,35.1,27.1,19.8,90,66,45,30.49,30.01,14,9,29,0.12
2013-3-6,47.9,33.9,24.1,26.6,22.2,19.0,82,64,42,30.58,30.45,8,2,14,0.00
2013-3-7,61.4,48.7,35.7,33.1,29.6,25.7,68,49,30,30.41,30.26,11,3,18,0.00
2013-3-8,61.4,53.1,44.1,41.3,36.7,31.7,66,54,45,30.34,30.14,11,5,19,0.00
2013-3-9,65.2,58.3,51.5,56.7,48.6,37.3,89,71,51,30.14,29.76,14,7,24,0.63
2013-3-10,55.9,44.6,30.4,52.7,41.4,26.4,92,89,84,30.11,29.74,13,5,23,0.42
2013-3-11,45.8,34.9,27.9,29.4,25.2,21.2,85,69,38,30.20,30.08,10,3,19,0.00
2013-3-12,55.0,42.8,29.3,34.5,28.4,22.8,84,59,36,30.49,30.19,9,2,21,0.00
2013-3-13,52.8,39.3,26.4,25.3,22.4,19.8,82,53,28,30.63,30.48,3,0,10,0.00
2013-3-14,71.5,53.4,39.0,46.3,34.7,21.9,68,50,36,30.50,30.22,14,4,20,0.00
2013-3-15,77.9,63.4,47.9,51.7,46.8,41.7,81,57,33,30.22,29.86,15,7,25,0.00
2013-3-16,72.3,61.2,47.4,53.2,46.8,39.2,78,60,48,29.95,29.83,12,5,20,0.00
2013-3-17,47.4,43.7,40.9,43.9,40.6,38.0,91,89,73,29.98,29.80,11,3,24,0.15
2013-3-18,55.3,45.5,36.8,43.4,37.7,29.9,91,76,40,30.19,29.81,10,3,19,0.01
2013-3-19,57.1,44.1,33.1,31.2,26.4,16.6,78,53,24,30.41,30.15,9,2,19,0.00
2013-3-20,46.6,38.2,30.0,31.7,24.3,16.9,88,61,32,30.52,30.26,10,2,18,0.00
2013-3-21,41.7,35.8,33.8,33.4,24.6,12.5,89,66,31,30.26,29.94,11,4,22,0.25
2013-3-22,43.0,38.5,34.3,39.1,35.1,31.4,90,88,84,30.09,29.97,6,1,17,0.09
2013-3-23,42.2,39.4,37.4,39.6,36.7,34.3,91,90,88,30.07,29.85,6,2,13,0.03
2013-3-24,40.7,32.9,28.5,38.3,29.2,22.4,91,86,76,30.30,29.81,15,7,29,0.08
2013-3-25,35.6,29.6,24.4,26.2,22.5,18.8,82,75,62,30.53,30.29,11,5,20,0.00
2013-3-26,44.6,33.0,24.3,25.9,22.8,20.4,88,68,43,30.62,30.47,6,1,12,0.00
2013-3-27,58.0,45.7,30.8,33.0,27.6,22.3,71,51,32,30.47,30.26,11,3,16,0.00
2013-3-28,68.8,56.3,45.0,52.2,41.7,30.7,73,58,50,30.33,30.21,14,5,21,0.00
2013-3-29,67.3,58.8,53.3,57.7,52.6,47.5,88,80,68,30.30,30.19,7,2,12,0.15
2013-3-30,68.7,59.7,52.4,59.3,54.2,48.9,89,83,68,30.23,29.98,16,3,35,0.58
2013-3-31,68.5,57.6,47.9,54.2,47.4,40.5,89,72,37,30.10,29.97,15,1,30,0.14